Location: Aufkirchen
(47.9603°N, 11.3653°E)
Time: 09:36:49
(UTC+01:00)

Tiros 1 - Pass Details

Date: 27 November 2020
Orbit: 630 x 663 km, 48.4° (Epoch: 28 January)

Event Time Altitude Azimuth Distance (km) Brightness Sun altitude
Rises 22:07:31 0° 284° (WNW) 2,974 - -54.8°
Reaches altitude 10° 22:10:11 10° 272° (W) 2,054 - -55.1°
Maximum altitude 22:14:02 25° 217° (SW) 1,297 - -55.6°
Drops below altitude 10° 22:17:52 10° 162° (SSE) 2,028 - -56.1°
Sets 22:20:29 0° 150° (SSE) 2,927 - -56.4°
